Location: ??????
(41.3164°N, 22.6615°E)
Time: 20:13:08
(UTC+00:00)

CUBEBUG 2 - Pass Details

Date: 01 July 2022
Orbit: 584 x 693 km, 97.7° (Epoch: 07 August)

Event Time Altitude Azimuth Distance (km) Brightness Sun altitude
Rises 00:38:29 0° 26° (NNE) 2,833 ? -19.3°
Reaches altitude 10° 00:41:00 10° 41° (NE) 1,938 ? -19.1°
Maximum altitude 00:44:23 23° 95° (E) 1,287 ? -18.7°
Enters shadow 00:47:33 11° 146° (SSE) 1,887 ? -18.4°
